This is the latest recevied weather packets stored in our database for station/object DB5ZQ. If no packets are shown the sender has not sent any weather packets the latest 10 day(s).
| Time | Temp. | Humidity | Pressure | Rain* | Wind** | Luminosity | Snow |
|---|---|---|---|---|---|---|---|
| 1777915005 | 21.67° C | 50% | 1007.9 hPa | 0 mm | - | - | - |
| 1777914705 | 21.67° C | 50% | 1008 hPa | 0 mm | - | - | - |
| 1777914405 | 21.11° C | 50% | 1008.1 hPa | 0 mm | - | - | - |
| 1777914105 | 21.11° C | 50% | 1008 hPa | 0 mm | - | - | - |
| 1777913804 | 21.11° C | 49% | 1008 hPa | 0 mm | - | - | - |
| 1777913504 | 21.67° C | 49% | 1008.2 hPa | 0 mm | - | - | - |
| 1777913204 | 21.67° C | 49% | 1008.2 hPa | 0 mm | - | - | - |
| 1777912904 | 21.67° C | 49% | 1008.2 hPa | 0 mm | - | - | - |
| 1777912603 | 22.22° C | 49% | 1008.3 hPa | 0 mm | - | - | - |
| 1777912303 | 22.22° C | 50% | 1008.3 hPa | 0 mm | - | - | - |
| 1777912003 | 21.67° C | 50% | 1008.4 hPa | 0 mm | - | - | - |
| 1777911702 | 21.67° C | 50% | 1008.4 hPa | 0 mm | - | - | - |
| 1777911402 | 22.22° C | 50% | 1008.3 hPa | 0 mm | - | - | - |
| 1777911102 | 22.22° C | 50% | 1008.3 hPa | 0 mm | - | - | - |
| 1777910802 | 22.22° C | 50% | 1008.3 hPa | 0 mm | - | - | - |
| 1777910501 | 22.22° C | 50% | 1008.2 hPa | 0 mm | - | - | - |
| 1777910201 | 22.22° C | 49% | 1008.2 hPa | 0 mm | - | - | - |
| 1777909901 | 22.78° C | 49% | 1008.1 hPa | 0 mm | - | - | - |
| 1777909600 | 22.78° C | 49% | 1008.2 hPa | 0 mm | - | - | - |
| 1777909300 | 22.78° C | 49% | 1008.2 hPa | 0 mm | - | - | - |
| 1777909000 | 23.33° C | 48% | 1008.2 hPa | 0 mm | - | - | - |
| 1777908700 | 23.33° C | 47% | 1008.3 hPa | 0 mm | - | - | - |
| 1777908399 | 23.89° C | 47% | 1008.3 hPa | 0 mm | - | - | - |
| 1777908099 | 23.89° C | 46% | 1008.2 hPa | 0 mm | - | - | - |
| 1777907799 | 24.44° C | 44% | 1008.3 hPa | 0 mm | - | - | - |
* Rain latest hour (hover to see other rain measurements)
** Current wind speed in m/s (hover to see current wind gust speed)